Regional Weather Roundup
Issued by NWS

Home | Current Version | Previous Version | Graphics & Text | Print | Product List | Glossary On
Versions: 1 2 3 4 5 6 7 8 9 10 11 12 13 14 15 16 17 18 19 20 21 22 23 24 25 26 27 28 29 30 31 32 33 34 35 36 37 38 39 40 41 42 43 44 45 46 47 48 49 50
000
ASUS45 KABQ 231801
RWRNM
NEW MEXICO REGIONAL WEATHER ROUNDUP
NATIONAL WEATHER SERVICE ALBUQUERQUE NM
1200 PM MDT SAT SEP 23 2017

NOTE: "FAIR" MEANS FEW OR NO CLOUDS BELOW 12,000 FEET AGL WITH NO
       SIGNIFICANT WEATHER OR OBSTRUCTIONS TO VISION.

      THIS PRODUCT IS RELEASED AS TWO VERSIONS.  ONE VERSION NEAR
      THE TOP OF THE HOUR CONTAINING PRELIMINARY DATA FROM ALBUQUERQUE
      AND OTHER STATIONS.  A FINAL VERSION WITH ADDITIONAL DATA IS
      ISSUED ABOUT 10 MINUTES AFTER THE HOUR.

NMZ501-503-504-510>518-231900-
NORTHWEST PLATEAU/NORTHCENTRAL MOUNTAINS

CITY           SKY/WX    TMP DP  RH WIND       PRES   REMARKS
FARMINGTON     CLOUDY    56  47  71 W23G29    29.93S
6HR MIN TEMP:  48; 6HR MAX TEMP:  60; 6HR PCP:  0.02;

LOS ALAMOS     PTSUNNY   66  41  40 S12G18    30.00S
SANTA FE       CLOUDY    68  49  50 S18       29.95F
6HR MIN TEMP:  56; 6HR MAX TEMP:  68; 6HR PCP:  0.01;

TAOS           CLOUDY    64  43  46 SW7       30.00F
ANGEL FIRE     LGT RAIN  54  47  77 SW5       30.08S

$$
NMZ402-403-502-505>509-231900-
WESTCENTRAL MOUNTAINS/SOUTHWEST MOUNTAINS

CITY           SKY/WX    TMP DP  RH WIND       PRES   REMARKS
GALLUP         CLOUDY    57  42  57 SW12      29.94F
6HR MIN TEMP:  42; 6HR MAX TEMP:  60; 6HR PCP: TRACE;

GRANTS         FAIR      74  36  25 S21G38    29.91F
SILVER CITY    FAIR      76  42  30 SW13G24   29.93F

$$
NMZ407-409-411-412-231900-
SOUTHERN DESERTS

CITY           SKY/WX    TMP DP  RH WIND       PRES   REMARKS
DEMING         FAIR      83  44  25 SW16G26   29.86F
6HR MIN TEMP:  64; 6HR MAX TEMP:  83;

LAS CRUCES     FAIR      81  50  34 SE12      29.88F
HOLLOMAN AFB   PTSUNNY   74  56  52 SE17      29.89R
ALAMOGORDO     PTSUNNY   73  59  60 S14       29.89S
T OR C         FAIR      81  45  28 S17G24    29.86F
6HR MIN TEMP:  66; 6HR MAX TEMP:  81; 6HR PCP: TRACE;


$$
NMZ519>523-231900-
CENTRAL VALLEYS/CENTRAL HIGHLANDS

CITY           SKY/WX    TMP DP  RH WIND       PRES   REMARKS
ALBUQUERQUE    PTSUNNY   75  43  31 S26       29.88F
6HR MIN TEMP:  64; 6HR MAX TEMP:  75; 6HR PCP: TRACE;

DOUBLE EAGLE   PTSUNNY   77  43  29 S24G36    29.90F
CLINES CORNERS CLOUDY    60  47  61 S15G29    30.04R
6HR MIN TEMP:  57; 6HR MAX TEMP:  61; 6HR PCP:  0.01;

BELEN          FAIR      80  40  24 S28       29.87F
6HR MIN TEMP:  63; 6HR MAX TEMP:  80;

SOCORRO        FAIR      80  40  24 S21G28    29.85F
6HR MIN TEMP:  64; 6HR MAX TEMP:  80;


$$
NMZ524>526-539-540-231900-
SOUTHCENTRAL MOUNTAINS

CITY           SKY/WX    TMP DP  RH WIND       PRES   REMARKS
RUIDOSO        LGT RAIN  59  54  82 S12       30.07S

$$
NMZ527>531-231900-
NORTHEAST HIGHLANDS/NORTHEAST PLAINS

CITY           SKY/WX    TMP DP  RH WIND       PRES   REMARKS
LAS VEGAS      LGT RAIN  58  55  90 S21       30.03R
6HR MIN TEMP:  55; 6HR MAX TEMP:  62; 6HR PCP:  0.11;

RATON          NOT AVBL
CLAYTON        TSTM      64  61  90 S9        29.96F
6HR MIN TEMP:  60; 6HR MAX TEMP:  71; 6HR PCP:  0.20;


$$
NMZ532>537-231900-
EASTCENTRAL PLAINS

CITY           SKY/WX    TMP DP  RH WIND       PRES   REMARKS
SANTA ROSA     LGT RAIN  64  63  97 S15       29.96S
TUCUMCARI      PTSUNNY   76  63  64 S22       29.89F
6HR MIN TEMP:  69; 6HR MAX TEMP:  77; 6HR PCP: TRACE;

CANNON AFB     CLOUDY    73  67  83 S18G28    29.95F
6HR MIN TEMP:  65; 6HR MAX TEMP:  73;

CLOVIS AIRPORT CLOUDY    73  62  68 S20G26    29.95F

$$
NMZ028-029-538-231900-
SOUTHEAST PLAINS

CITY           SKY/WX    TMP DP  RH WIND       PRES   REMARKS
ROSWELL        CLOUDY    66  64  93 CALM      29.90F
6HR MIN TEMP:  64; 6HR MAX TEMP:  73; 6HR PCP:  0.78;

ARTESIA        DRIZZLE   70  70 100 W5        29.89F
CARLSBAD       PTSUNNY   79  67  66 S7        29.85F
6HR MIN TEMP:  69; 6HR MAX TEMP:  79; 6HR PCP: TRACE;

HOBBS          PTSUNNY   79  63  57 SE20G28   29.90F


$$




USA.gov is the U.S. government's official web portal to all federal, state and local government web resources and services.